Weather History for Hurlburt Field, FL

Change the Weather History Date:

Monday, April 22, 2013

  Actual Average Record
Temperature  
Mean Temperature 66 °F -  
Max Temperature 72 °F 74 °F 84 °F (2002)
Min Temperature 60 °F 58 °F 49 °F (2009)
Cooling Degree Days 1    
Growing Degree Days 16 (Base 50)    
Moisture  
Dew Point 59 °F    
Average Humidity 76    
Maximum Humidity 93    
Minimum Humidity 68    
Precipitation  
Precipitation 0.00 in - - ()
Sea Level Pressure  
Sea Level Pressure 30.10 in    
Wind  
Wind Speed 7 mph (ENE)    
Max Wind Speed 10 mph    
Max Gust Speed -    
Visibility 10 miles    
Events      
Averages and records for this station are not official NWS values.
T = Trace of Precipitation, MM = Missing Value Source: NWS Daily Summary

Daily Weather History Graph

Daily Weather History Graph

Search for Another Location

Airport:

Trip Planner

Search our weather history database for the weather conditions in past years. The results will help you decide how hot, cold, wet, or windy it might be!

Date:

Astronomy

Apr. 22, 2013 Rise Set
Actual Time 6:11 AM CDT 7:19 PM CDT
Civil Twilight 5:46 AM CDT 7:44 PM CDT
Nautical Twilight 5:17 AM CDT 8:13 PM CDT
Astronomical Twilight 4:46 AM CDT 8:44 PM CDT
Moon 4:19 PM CDT (4/22) 3:52 AM CDT (4/22)
Length of Visible Light 13h 57m
Length of Day
13h 07m
Waxing Gibbous, 88% of the Moon is Illuminated
Apr 22
Waxing Gibbous
Apr 25
Full
May 2
Last Quarter
May 9
New
May 17
First Quarter

Hourly Weather History & Observations

Time (CDT) Temp. Dew Point Humidity Pressure Visibility Wind Dir Wind Speed Gust Speed Precip Events Conditions
12:58 AM 61.0 °F 50.7 °F 69% 30.12 in 10.0 mi NNE 5.8 mph - N/A   Partly Cloudy
1:53 AM 60.8 °F 51.8 °F 72% 30.10 in 10.0 mi NE 6.9 mph - N/A   Overcast
1:58 AM 61.7 °F 50.9 °F 68% 30.11 in 10.0 mi NE 8.1 mph - N/A   Overcast
2:18 AM 62.6 °F 51.8 °F 68% 30.09 in 10.0 mi ENE 6.9 mph - N/A   Overcast
2:58 AM 61.7 °F 51.1 °F 68% 30.09 in 10.0 mi ENE 6.9 mph - N/A   Mostly Cloudy
3:58 AM 62.1 °F 52.3 °F 70% 30.09 in 10.0 mi NE 6.9 mph - N/A   Overcast
4:33 AM 62.6 °F 53.6 °F 72% 30.09 in 10.0 mi ENE 5.8 mph - N/A   Overcast
4:53 AM 62.6 °F 53.6 °F 72% 30.09 in 10.0 mi ENE 6.9 mph - N/A   Mostly Cloudy
4:58 AM 62.6 °F 54.3 °F 74% 30.09 in 10.0 mi ENE 6.9 mph - N/A   Mostly Cloudy
5:08 AM 62.6 °F 55.4 °F 77% 30.09 in 10.0 mi East 5.8 mph - N/A   Mostly Cloudy
5:29 AM 64.4 °F 57.2 °F 77% 30.09 in 10.0 mi ENE 6.9 mph - N/A   Mostly Cloudy
5:33 AM 64.4 °F 57.2 °F 77% 30.09 in 10.0 mi East 6.9 mph - N/A   Overcast
5:58 AM 65.3 °F 58.8 °F 80% 30.11 in 10.0 mi ESE 8.1 mph - N/A   Overcast
6:41 AM 64.4 °F 59.0 °F 83% 30.11 in 10.0 mi ENE 10.4 mph - N/A   Mostly Cloudy
6:52 AM 64.4 °F 59.0 °F 83% 30.11 in 10.0 mi ENE 9.2 mph - N/A   Scattered Clouds
6:55 AM 64.4 °F 59.0 °F 83% 30.11 in 10.0 mi ENE 9.2 mph - N/A   Scattered Clouds
6:58 AM 64.0 °F 58.3 °F 82% 30.12 in 10.0 mi ENE 9.2 mph - N/A   Scattered Clouds
7:58 AM 65.1 °F 58.1 °F 78% 30.13 in 10.0 mi ENE 8.1 mph - N/A   Scattered Clouds
8:13 AM 64.4 °F 57.2 °F 77% 30.12 in 10.0 mi ENE 10.4 mph - N/A   Mostly Cloudy
8:58 AM 65.3 °F 58.3 °F 78% 30.14 in 10.0 mi ENE 9.2 mph - N/A   Overcast
9:58 AM 66.2 °F 59.0 °F 78% 30.16 in 10.0 mi East 9.2 mph - N/A   Overcast
10:58 AM 66.6 °F 60.3 °F 80% 30.16 in 10.0 mi East 8.1 mph - N/A   Overcast
11:58 AM 68.0 °F 60.8 °F 78% 30.15 in 10.0 mi ESE 8.1 mph - N/A   Overcast
12:58 PM 68.9 °F 61.5 °F 77% 30.14 in 10.0 mi ESE 6.9 mph - N/A   Overcast
1:49 PM 71.6 °F 62.6 °F 73% 30.11 in 10.0 mi East 9.2 mph - N/A   Light Drizzle
1:58 PM 72.1 °F 61.9 °F 70% 30.12 in 10.0 mi NE 5.8 mph - 0.00 in   Light Drizzle
1:59 PM 71.6 °F 62.6 °F 73% 30.11 in 10.0 mi East 9.2 mph - N/A   Overcast
2:49 PM 71.6 °F 62.6 °F 73% 30.10 in 10.0 mi East 6.9 mph - N/A   Overcast
2:58 PM 71.6 °F 62.1 °F 72% 30.10 in 10.0 mi East 6.9 mph - 0.00 in   Overcast
3:08 PM 71.6 °F 62.6 °F 73% 30.09 in 10.0 mi East 6.9 mph - N/A   Overcast
3:23 PM 71.6 °F 62.6 °F 73% 30.08 in 10.0 mi East 5.8 mph - N/A   Overcast
3:28 PM 71.6 °F 62.6 °F 73% 30.08 in 10.0 mi East 10.4 mph - N/A   Overcast
3:38 PM 71.6 °F 62.6 °F 73% 30.08 in 10.0 mi ESE 6.9 mph - N/A   Overcast
3:58 PM 72.0 °F 62.2 °F 71% 30.09 in 10.0 mi ENE 8.1 mph - N/A   Overcast
4:03 PM 71.6 °F 62.6 °F 73% 30.08 in 10.0 mi NE 8.1 mph - N/A   Overcast
4:08 PM 71.6 °F 62.6 °F 73% 30.08 in 10.0 mi NNE 8.1 mph - N/A   Overcast
4:18 PM 71.6 °F 62.6 °F 73% 30.08 in 10.0 mi ENE 5.8 mph - N/A   Overcast
4:58 PM 70.5 °F 61.5 °F 73% 30.09 in 10.0 mi NNE 5.8 mph - N/A   Overcast
5:58 PM 69.4 °F 61.2 °F 75% 30.08 in 10.0 mi NNE 5.8 mph - N/A   Overcast
6:58 PM 69.4 °F 60.6 °F 73% 30.08 in 10.0 mi ENE 9.2 mph - N/A   Overcast
7:58 PM 66.7 °F 59.7 °F 78% 30.09 in 10.0 mi ENE 6.9 mph - N/A   Partly Cloudy
8:58 PM 63.7 °F 59.2 °F 85% 30.10 in 10.0 mi NE 3.5 mph - N/A   Clear
9:58 PM 61.7 °F 59.5 °F 93% 30.12 in 10.0 mi ENE 4.6 mph - N/A   Clear
10:58 PM 62.8 °F 60.4 °F 92% 30.11 in 10.0 mi East 5.8 mph - N/A   Clear